Ward, CO

5:45 PM MST on December 10, 2016 (GMT -0700)
Niwot Ridge Corona Pass

Weather History for KCRV - January, 2003

Change the Weather History Date:

Saturday, January 25, 2003

  Actual Average (KBJC) Record (KBJC)
Temperature  
Mean Temperature 21 °F -  
Max Temperature 23 °F 44 °F 60 °F (2005)
Min Temperature 19 °F 25 °F -2 °F (1991)
Degree Days  
Heating Degree Days 44    
Moisture  
Dew Point 19 °F    
Average Humidity 90    
Maximum Humidity 93    
Minimum Humidity 86    
Precipitation  
Precipitation 0.00 in - - ()
Sea Level Pressure  
Sea Level Pressure 30.09 in    
Wind  
Wind Speed 37 mph (NW)    
Max Wind Speed 44 mph    
Max Gust Speed 61 mph    
Averages and records for this station are not official NWS values.
T = Trace of Precipitation, MM = Missing Value Source: NWS Daily Summary

Daily Weather History Graph

Daily Weather History Graph

Search for Another Location

Airport or City:

Trip Planner

Search our weather history database for the weather conditions in past years. The results will help you decide how hot, cold, wet, or windy it might be!

Date:

Astronomy

Jan. 25, 2003 Rise Set
Actual Time 7:17 AM MST 5:12 PM MST
Civil Twilight 6:47 AM MST 5:41 PM MST
Nautical Twilight 6:15 AM MST 6:14 PM MST
Astronomical Twilight 5:42 AM MST 6:46 PM MST
Moon 12:33 AM MST (1/25) 11:34 AM MST (1/25)
Length of Visible Light 10h 53m
Length of Day
9h 55m
Last Quarter, 45% of the Moon is Illuminated
Jan 25
Last Quarter
Feb 1
New
Feb 9
First Quarter
Feb 16
Full
Feb 23
Last Quarter

Hourly Weather History & Observations

Time (MST) Temp. Windchill Dew Point Humidity Pressure Visibility Wind Dir Wind Speed Gust Speed Precip Events Conditions
12:10 AM 23.0 °F 3.7 °F 21.2 °F 93% 30.04 in 0.2 mi NW 38.0 mph 54.1 mph N/A Snow Heavy Snow
12:30 AM 23.0 °F 3.4 °F 21.2 °F 93% 30.04 in 0.2 mi WNW 39.1 mph 55.2 mph N/A Snow Heavy Snow
12:50 AM 23.0 °F 3.0 °F 21.2 °F 93% 30.04 in 0.2 mi NW 41.4 mph 61.0 mph N/A Snow Heavy Snow
1:10 AM 23.0 °F 3.9 °F 21.2 °F 93% 30.06 in 0.2 mi NW 36.8 mph 55.2 mph N/A Snow Heavy Snow
1:29 AM 23.0 °F 4.1 °F 21.2 °F 93% 30.06 in 0.5 mi NW 35.7 mph 44.9 mph N/A Snow Snow
1:49 AM 23.0 °F 3.9 °F 19.4 °F 86% 30.05 in 0.8 mi NW 36.8 mph 50.6 mph N/A Snow Snow
2:10 AM 23.0 °F 5.4 °F 19.4 °F 86% 30.06 in 0.5 mi WNW 29.9 mph 48.3 mph N/A Snow Snow
2:29 AM 23.0 °F 3.9 °F 21.2 °F 93% 30.04 in 0.2 mi WNW 36.8 mph 57.5 mph N/A Snow Heavy Snow
2:49 AM 23.0 °F 4.9 °F 21.2 °F 93% 30.04 in 0.2 mi WNW 32.2 mph 49.5 mph N/A Snow Heavy Snow
3:10 AM 21.2 °F 0.9 °F 19.4 °F 93% 30.04 in 0.2 mi WNW 39.1 mph 61.0 mph N/A Snow Heavy Snow
3:30 AM 21.2 °F 0.5 °F 19.4 °F 93% 30.03 in 0.2 mi NW 41.4 mph 49.5 mph N/A Snow Heavy Snow
3:49 AM 21.2 °F 0.7 °F 19.4 °F 93% 30.04 in 0.2 mi WNW 40.3 mph 58.7 mph N/A Snow Heavy Snow
4:10 AM 21.2 °F 0.5 °F 19.4 °F 93% 30.02 in 0.2 mi WNW 41.4 mph 50.6 mph N/A Snow Heavy Snow
4:30 AM 21.2 °F 0.1 °F 19.4 °F 93% 30.02 in 0.2 mi NW 43.7 mph 58.7 mph N/A Snow Heavy Snow
4:50 AM 21.2 °F 0.1 °F 19.4 °F 93% 30.04 in 0.2 mi NW 43.7 mph 52.9 mph N/A Snow Heavy Snow
5:10 AM 21.2 °F 0.7 °F 19.4 °F 93% 30.06 in 0.2 mi NW 40.3 mph 50.6 mph N/A Snow Heavy Snow
5:30 AM 21.2 °F 1.4 °F 19.4 °F 93% 30.07 in 0.5 mi NW 36.8 mph 47.2 mph N/A Snow Snow
5:50 AM 21.2 °F 2.7 °F 19.4 °F 93% 30.09 in 0.8 mi WNW 31.1 mph 44.9 mph N/A Snow Light Snow
6:09 AM 21.2 °F 2.4 °F 19.4 °F 93% 30.10 in 0.5 mi WNW 32.2 mph 43.7 mph N/A Snow Snow
6:30 AM 21.2 °F 2.4 °F 19.4 °F 93% 30.09 in 0.5 mi WNW 32.2 mph 40.3 mph N/A Snow Snow
6:50 AM 21.2 °F 0.9 °F 19.4 °F 93% 30.08 in 0.5 mi WNW 39.1 mph 47.2 mph N/A Snow Heavy Snow
7:10 AM 21.2 °F 1.7 °F 19.4 °F 93% 30.09 in 0.2 mi WNW 35.7 mph 47.2 mph N/A Snow Heavy Snow
7:32 AM 21.2 °F 1.2 °F 19.4 °F 93% 30.08 in 0.2 mi WNW 38.0 mph 51.8 mph N/A Snow Heavy Snow
7:49 AM 21.2 °F 0.7 °F 19.4 °F 93% 30.09 in 0.2 mi WNW 40.3 mph 48.3 mph N/A Snow Heavy Snow
8:09 AM 21.2 °F 1.7 °F 17.6 °F 86% 30.11 in 0.2 mi WNW 35.7 mph 47.2 mph N/A Snow Heavy Snow
8:30 AM 21.2 °F 0.7 °F 17.6 °F 86% 30.11 in 0.2 mi WNW 40.3 mph 50.6 mph N/A Snow Heavy Snow
8:49 AM 21.2 °F 0.5 °F 17.6 °F 86% 30.11 in 0.2 mi WNW 41.4 mph 50.6 mph N/A Snow Heavy Snow
9:10 AM 19.4 °F -2.4 °F 17.6 °F 93% 30.11 in 0.2 mi WNW 43.7 mph 50.6 mph N/A Snow Heavy Snow
9:30 AM 19.4 °F -1.8 °F 17.6 °F 93% 30.12 in 0.2 mi WNW 40.3 mph 50.6 mph N/A Snow Heavy Snow
9:49 AM 19.4 °F -1.3 °F 17.6 °F 93% 30.12 in 0.2 mi WNW 38.0 mph 44.9 mph N/A Snow Heavy Snow
10:10 AM 19.4 °F -1.1 °F 17.6 °F 93% 30.13 in 0.2 mi WNW 36.8 mph 43.7 mph N/A Snow Snow
10:29 AM 19.4 °F -0.8 °F 17.6 °F 93% 30.14 in 0.2 mi WNW 35.7 mph 40.3 mph N/A Snow Snow
10:50 AM 21.2 °F 3.0 °F 17.6 °F 86% 30.17 in 0.5 mi NW 29.9 mph 36.8 mph N/A Snow Light Snow
11:10 AM 21.2 °F 4.5 °F 17.6 °F 86% 30.17 in 0.5 mi NW 24.2 mph 33.4 mph N/A Snow Light Snow
11:29 AM 21.2 °F 3.5 °F 17.6 °F 86% 30.15 in 0.5 mi WNW 27.6 mph 33.4 mph N/A Snow Light Snow
11:49 AM 21.2 °F 3.5 °F 17.6 °F 86% 30.14 in 0.5 mi NW 27.6 mph 40.3 mph N/A Snow Light Snow
12:09 PM 21.2 °F 3.3 °F 17.6 °F 86% 30.14 in 0.5 mi NW 28.8 mph 35.7 mph N/A Snow Light Snow
12:30 PM 21.2 °F 3.5 °F 17.6 °F 86% 30.12 in 0.5 mi WNW 27.6 mph 35.7 mph N/A Snow Light Snow
12:49 PM 21.2 °F 2.2 °F 17.6 °F 86% 30.11 in 0.2 mi NW 33.4 mph 41.4 mph N/A Snow Light Snow
1:09 PM 21.2 °F 2.4 °F 17.6 °F 86% 30.11 in 0.2 mi NW 32.2 mph 44.9 mph N/A Snow Light Snow
1:29 PM 21.2 °F 2.7 °F 17.6 °F 86% 30.10 in 0.2 mi WNW 31.1 mph 43.7 mph N/A Snow Light Snow
1:49 PM 21.2 °F 0.9 °F 17.6 °F 86% 30.09 in 0.2 mi NW 39.1 mph 46.0 mph N/A Snow Snow
2:09 PM 21.2 °F 1.4 °F 17.6 °F 86% 30.09 in 0.2 mi NW 36.8 mph 47.2 mph N/A Snow Snow
2:29 PM 21.2 °F 0.5 °F 17.6 °F 86% 30.10 in 0.2 mi NW 41.4 mph 48.3 mph N/A Snow Snow
2:50 PM 21.2 °F 0.7 °F 17.6 °F 86% 30.09 in 0.2 mi WNW 40.3 mph 48.3 mph N/A Snow Snow
3:10 PM 21.2 °F 0.9 °F 17.6 °F 86% 30.10 in 0.2 mi WNW 39.1 mph 48.3 mph N/A Snow Snow
3:30 PM 19.4 °F -1.8 °F 17.6 °F 93% 30.11 in 0.2 mi WNW 40.3 mph 47.2 mph N/A Snow Heavy Snow
3:49 PM 19.4 °F -1.8 °F 17.6 °F 93% 30.12 in 0.2 mi NW 40.3 mph 48.3 mph N/A Snow Heavy Snow
4:11 PM 19.4 °F -1.6 °F 17.6 °F 93% 30.13 in 0.2 mi WNW 39.1 mph 48.3 mph N/A Snow Heavy Snow
4:30 PM 19.4 °F -1.8 °F 17.6 °F 93% 30.13 in 0.2 mi WNW 40.3 mph 48.3 mph N/A Snow Heavy Snow
4:49 PM 19.4 °F -2.0 °F 17.6 °F 93% 30.15 in 0.2 mi NW 41.4 mph 46.0 mph N/A Snow Snow
5:10 PM 19.4 °F -1.6 °F 17.6 °F 93% 30.15 in 0.2 mi WNW 39.1 mph 47.2 mph N/A Snow Heavy Snow
5:29 PM 19.4 °F -1.3 °F 17.6 °F 93% 30.17 in 0.2 mi WNW 38.0 mph 49.5 mph N/A Snow Heavy Snow
5:49 PM 19.4 °F -0.8 °F 17.6 °F 93% 30.18 in 0.2 mi WNW 35.7 mph 44.9 mph N/A Snow Heavy Snow
6:10 PM 19.4 °F -1.6 °F 17.6 °F 93% 30.19 in 0.2 mi WNW 39.1 mph 47.2 mph N/A Snow Heavy Snow
6:30 PM 17.6 °F -3.3 °F 15.8 °F 93% 30.19 in 0.2 mi WNW 35.7 mph 43.7 mph N/A Snow Heavy Snow
6:49 PM 17.6 °F -2.8 °F 15.8 °F 93% 30.20 in 0.5 mi WNW 33.4 mph 40.3 mph N/A Snow Snow
7:09 PM 17.6 °F -3.3 °F 15.8 °F 93% 30.20 in 0.5 mi WNW 35.7 mph 42.6 mph N/A Snow Snow
7:30 PM 19.4 °F -0.0 °F 15.8 °F 86% 30.21 in 0.8 mi NW 32.2 mph 43.7 mph N/A Snow Snow
7:49 PM 19.4 °F -0.8 °F 17.6 °F 93% 30.20 in 0.8 mi WNW 35.7 mph 42.6 mph N/A Snow Snow
8:11 PM 19.4 °F -1.6 °F 17.6 °F 93% 30.19 in 0.5 mi WNW 39.1 mph 47.2 mph N/A Snow Snow
8:30 PM 19.4 °F -2.2 °F 17.6 °F 93% 30.19 in 0.5 mi NW 42.6 mph 49.5 mph N/A Snow Heavy Snow
8:49 PM 19.4 °F -1.8 °F 17.6 °F 93% 30.21 in 0.5 mi NW 40.3 mph 47.2 mph N/A Snow Snow
9:10 PM 19.4 °F -1.6 °F 17.6 °F 93% 30.21 in 0.2 mi WNW 39.1 mph 44.9 mph N/A Snow Heavy Snow
9:29 PM 19.4 °F -1.8 °F 17.6 °F 93% 30.21 in 0.5 mi NW 40.3 mph 48.3 mph N/A Snow Snow
9:50 PM 19.4 °F -1.6 °F 17.6 °F 93% 30.22 in 0.5 mi NW 39.1 mph 44.9 mph N/A Snow Snow
10:09 PM 19.4 °F 0.2 °F 17.6 °F 93% 30.24 in 0.8 mi NW 31.1 mph 44.9 mph N/A Snow Light Snow
10:29 PM 19.4 °F -1.1 °F 17.6 °F 93% 30.23 in 0.5 mi WNW 36.8 mph 44.9 mph N/A Snow Heavy Snow
10:51 PM 19.4 °F 0.5 °F 17.6 °F 93% 30.23 in 0.5 mi NW 29.9 mph 42.6 mph N/A Snow Snow
11:09 PM 19.4 °F -2.9 °F 17.6 °F 93% 30.21 in 0.2 mi NW 46.0 mph 50.6 mph N/A Snow Heavy Snow
11:29 PM 19.4 °F -2.2 °F 17.6 °F 93% 30.19 in 0.2 mi WNW 42.6 mph 54.1 mph N/A Snow Heavy Snow
11:49 PM 19.4 °F -2.4 °F 19.4 °F 100% 30.18 in 0.2 mi WNW 43.7 mph 59.8 mph N/A Snow Heavy Snow